FW4623 Weather Reports


time (UTC)temp
C
wind
direction
speed
KPH
gust
KPH
rain 1hr
cm
rain 24hr
cm
rain mn
cm
humidity
%
barometer
mb
20260505070543 20 141 0.0 8.0 0.00 0.00 0.00 83 1013.9
20260505070049 20 125 0.0 6.4 0.00 0.00 0.00 82 1013.9
20260505065539 20 149 0.0 3.2 0.00 0.00 0.00 82 1013.9
20260505065038 20 169 0.0 8.0 0.00 0.00 0.00 82 1014.1
20260505064538 20 140 0.0 8.0 0.00 0.00 0.00 82 1014.0
20260505064038 20 146 0.0 6.4 0.00 0.00 0.00 82 1014.1
20260505063537 20 132 0.0 6.4 0.00 0.00 0.00 82 1014.0
20260505063037 20 150 0.0 3.2 0.00 0.00 0.00 82 1014.3
20260505062536 20 150 0.0 3.2 0.00 0.00 0.00 82 1014.5
20260505062033 20 150 0.0 4.8 0.00 0.00 0.00 82 1014.4
20260505061533 20 156 0.0 4.8 0.00 0.00 0.00 82 1014.7
20260505061033 20 126 0.0 3.2 0.00 0.00 0.00 82 1014.7
20260505060532 20 126 0.0 3.2 0.00 0.00 0.00 82 1014.7
20260505060035 20 126 0.0 4.8 0.00 0.00 0.00 82 1014.7
20260505055533 20 126 0.0 4.8 0.00 0.00 0.00 82 1014.8
20260505055032 20 121 0.0 3.2 0.00 0.00 0.00 82 1014.6
20260505054533 20 139 0.0 3.2 0.00 0.00 0.00 81 1014.7
20260505054030 21 139 0.0 3.2 0.00 0.00 0.00 81 1014.6
20260505053531 21 139 0.0 3.2 0.00 0.00 0.00 81 1014.7
20260505053029 21 139 0.0 3.2 0.00 0.00 0.00 81 1014.9
20260505052532 21 97 0.0 4.8 0.00 0.00 0.00 81 1014.9
20260505052029 21 94 1.6 4.8 0.00 0.00 0.00 81 1014.8
20260505051528 21 148 0.0 3.2 0.00 0.00 0.00 80 1014.8
20260505051028 21 153 0.0 4.8 0.00 0.00 0.00 80 1014.8
20260505050531 21 153 0.0 4.8 0.00 0.00 0.00 80 1014.9
20260505041538 21 142 0.0 6.4 0.00 0.00 0.00 79 1015.2
20260505041020 22 105 1.6 4.8 0.00 0.00 0.00 78 1015.1
20260505040520 22 103 0.0 4.8 0.00 0.00 0.00 78 1015.3
20260505040019 22 128 0.0 3.2 0.00 0.00 0.00 78 1015.2
20260505035518 22 128 0.0 6.4 0.00 0.00 0.00 77 1015.3
20260505035018 22 116 0.0 4.8 0.00 0.00 0.00 77 1015.3
20260505034518 22 123 1.6 4.8 0.00 0.00 0.00 77 1015.3
20260505034022 22 120 0.0 4.8 0.00 0.00 0.00 77 1015.3
20260505033518 22 98 0.0 6.4 0.00 0.00 0.00 77 1015.3
20260505033018 22 120 1.6 6.4 0.00 0.00 0.00 76 1015.2
20260505032521 22 119 0.0 4.8 0.00 0.00 0.00 76 1015.3
20260505032019 22 116 0.0 4.8 0.00 0.00 0.00 76 1015.2
20260505031518 22 136 0.0 6.4 0.00 0.00 0.00 76 1015.4
20260505031017 22 141 0.0 6.4 0.00 0.00 0.00 76 1015.4
20260505030517 22 129 1.6 6.4 0.00 0.00 0.00 76 1015.4
20260505030017 23 125 0.0 3.2 0.00 0.00 0.00 76 1015.4
20260505025517 23 133 0.0 6.4 0.00 0.00 0.00 75 1015.6
20260505025018 23 148 1.6 6.4 0.00 0.00 0.00 75 1015.3
20260505024521 23 132 0.0 11.3 0.00 0.00 0.00 75 1015.2
20260505024017 23 141 0.0 11.3 0.00 0.00 0.00 75 1015.1
20260505023516 23 126 3.2 12.9 0.00 0.00 0.00 74 1015.1
20260505023017 23 109 3.2 12.9 0.00 0.00 0.00 74 1015.0
20260505022516 23 121 3.2 8.0 0.00 0.00 0.00 74 1015.1
20260505022017 23 124 3.2 8.0 0.00 0.00 0.00 74 1015.1
20260505021516 23 142 1.6 9.7 0.00 0.00 0.00 73 1015.1
20260505021015 23 133 3.2 8.0 0.00 0.00 0.00 73 1015.1
20260505020515 23 137 1.6 8.0 0.00 0.00 0.00 73 1015.1
20260505020018 23 134 1.6 6.4 0.00 0.00 0.00 72 1015.0
20260505015517 23 107 1.6 11.3 0.00 0.00 0.00 72 1015.0
20260505015015 23 107 3.2 11.3 0.00 0.00 0.00 72 1014.9
20260505014516 24 130 1.6 12.9 0.00 0.00 0.00 72 1014.9
20260505014014 24 128 4.8 12.9 0.00 0.00 0.00 72 1014.8
20260505013517 24 129 3.2 11.3 0.00 0.00 0.00 72 1014.7
20260505013019 24 122 3.2 12.9 0.00 0.00 0.00 71 1014.6
20260505012515 24 125 1.6 12.9 0.00 0.00 0.00 71 1014.6
20260505012014 24 87 6.4 14.5 0.00 0.00 0.00 71 1014.6
20260505011521 24 132 6.4 14.5 0.00 0.00 0.00 70 1014.7
20260505011016 25 63 4.8 14.5 0.00 0.00 0.00 70 1014.4
20260505010513 25 132 4.8 12.9 0.00 0.00 0.00 70 1014.3
20260505010014 25 138 6.4 14.5 0.00 0.00 0.00 69 1014.4
20260505005513 25 126 3.2 16.1 0.00 0.00 0.00 69 1014.4
20260505005013 25 87 4.8 16.1 0.00 0.00 0.00 69 1014.4
20260505004522 25 131 3.2 12.9 0.00 0.00 0.00 68 1014.4
20260505004012 25 105 3.2 17.7 0.00 0.00 0.00 68 1014.2
20260505003512 25 140 6.4 17.7 0.00 0.00 0.00 68 1014.0
20260505003012 25 108 3.2 11.3 0.00 0.00 0.00 68 1014.0
20260505002513 26 157 3.2 14.5 0.00 0.00 0.00 67 1014.1
20260505002011 26 144 1.6 14.5 0.00 0.00 0.00 66 1014.1
20260505001511 26 126 3.2 16.1 0.00 0.00 0.00 65 1013.9
20260505001010 26 127 3.2 16.1 0.00 0.00 0.00 65 1013.7
20260505000509 26 129 1.6 14.5 0.00 0.00 0.00 65 1013.5
20260505000015 26 151 3.2 14.5 0.00 0.00 0.00 64 1013.4
20260504235509 26 155 3.2 16.1 0.00 0.00 0.00 64 1013.3
20260504235008 26 138 3.2 16.1 0.00 0.00 0.00 64 1013.4
20260504234508 26 129 4.8 8.0 0.00 0.00 0.00 63 1013.3
20260504234008 27 143 3.2 12.9 0.00 0.00 0.00 63 1013.2
20260504233508 27 146 4.8 16.1 0.00 0.00 0.00 62 1013.1
20260504233007 27 100 8.0 16.1 0.00 0.00 0.00 61 1013.0
20260504232508 27 154 3.2 12.9 0.00 0.00 0.00 61 1013.1
20260504232007 27 118 3.2 12.9 0.00 0.00 0.00 61 1012.9
20260504231506 27 146 3.2 12.9 0.00 0.00 0.00 60 1013.0
20260504231007 27 122 0.0 11.3 0.00 0.00 0.00 61 1013.0
20260504230507 27 127 3.2 14.5 0.00 0.00 0.00 59 1012.9
20260504230012 27 132 6.4 14.5 0.00 0.00 0.00 59 1012.8
20260504225508 28 127 3.2 14.5 0.00 0.00 0.00 58 1012.8
20260504225006 28 126 4.8 17.7 0.00 0.00 0.00 58 1012.7
20260504224505 28 98 1.6 16.1 0.00 0.00 0.00 58 1012.8
20260504224005 28 172 4.8 16.1 0.00 0.00 0.00 57 1012.9
20260504223505 28 185 6.4 17.7 0.00 0.00 0.00 56 1013.1
20260504223005 28 159 6.4 19.3 0.00 0.00 0.00 56 1013.0
20260504222505 29 123 6.4 19.3 0.00 0.00 0.00 56 1012.8
20260504222007 28 132 3.2 11.3 0.00 0.00 0.00 56 1012.9
20260504221505 29 142 1.6 8.0 0.00 0.00 0.00 55 1013.0
20260504221003 29 147 1.6 14.5 0.00 0.00 0.00 56 1012.9
20260504220503 28 164 1.6 9.7 0.00 0.00 0.00 56 1012.9
20260504220004 29 26 1.6 12.9 0.00 0.00 0.00 55 1013.0
20260504215503 29 88 4.8 12.9 0.00 0.00 0.00 54 1013.0
20260504215006 29 121 3.2 12.9 0.00 0.00 0.00 53 1012.9
20260504214503 29 105 1.6 6.4 0.00 0.00 0.00 54 1012.8
20260504214002 29 126 3.2 6.4 0.00 0.00 0.00 53 1012.9
20260504213502 29 99 1.6 11.3 0.00 0.00 0.00 54 1013.0
20260504213005 29 137 3.2 12.9 0.00 0.00 0.00 53 1013.0
20260504212502 29 146 1.6 12.9 0.00 0.00 0.00 56 1013.1
20260504212000 29 123 6.4 12.9 0.00 0.00 0.00 54 1012.9
20260504211503 28 142 1.6 11.3 0.00 0.00 0.00 56 1013.1
20260504211101 28 151 1.6 11.3 0.00 0.00 0.00 55 1013.1
20260504210601 28 140 1.6 11.3 0.00 0.00 0.00 56 1013.0
20260504210100 28 127 1.6 16.1 0.00 0.00 0.00 53 1013.1
20260504205601 29 111 6.4 16.1 0.00 0.00 0.00 52 1013.1
20260504205059 28 151 1.6 9.7 0.00 0.00 0.00 54 1013.1
20260504204603 28 137 1.6 16.1 0.00 0.00 0.00 54 1013.2
20260504204059 29 175 6.4 16.1 0.00 0.00 0.00 52 1013.1
20260504203603 28 140 3.2 9.7 0.00 0.00 0.00 53 1013.2
20260504203121 28 127 3.2 12.9 0.00 0.00 0.00 53 1013.3
20260504202559 29 150 4.8 12.9 0.00 0.00 0.00 51 1013.3
20260504202057 29 123 1.6 14.5 0.00 0.00 0.00 53 1013.3
20260504201556 30 81 6.4 14.5 0.00 0.00 0.00 50 1013.3
20260504201057 30 152 4.8 17.7 0.00 0.00 0.00 51 1013.4
20260504200556 30 56 3.2 17.7 0.00 0.00 0.00 52 1013.4
20260504200055 29 79 1.6 16.1 0.00 0.00 0.00 54 1013.5
20260504195559 29 158 6.4 16.1 0.00 0.00 0.00 52 1013.7
20260504195055 29 103 3.2 12.9 0.00 0.00 0.00 52 1013.6
20260504194604 30 86 3.2 16.1 0.00 0.00 0.00 50 1013.7
20260504194054 30 142 4.8 16.1 0.00 0.00 0.00 50 1013.7
20260504193554 29 131 3.2 12.9 0.00 0.00 0.00 51 1013.8
20260504193101 29 184 6.4 14.5 0.00 0.00 0.00 52 1013.9
20260504192552 29 150 1.6 14.5 0.00 0.00 0.00 52 1013.9
20260504192052 29 200 4.8 16.1 0.00 0.00 0.00 51 1013.9
20260504191551 29 109 4.8 16.1 0.00 0.00 0.00 53 1013.9
20260504191051 29 126 3.2 11.3 0.00 0.00 0.00 53 1014.1
20260504190552 28 129 3.2 17.7 0.00 0.00 0.00 54 1014.1
20260504190105 28 103 8.0 22.5 0.00 0.00 0.00 54 1014.3
20260504185548 29 128 9.7 22.5 0.00 0.00 0.00 49 1014.5
20260504185048 30 86 3.2 12.9 0.00 0.00 0.00 52 1014.6
20260504184553 29 69 3.2 12.9 0.00 0.00 0.00 52 1014.8
20260504184046 29 123 3.2 12.9 0.00 0.00 0.00 52 1014.7
20260504183549 29 46 1.6 14.5 0.00 0.00 0.00 57 1014.9
20260504183044 28 79 3.2 14.5 0.00 0.00 0.00 54 1014.9
20260504182548 28 171 3.2 12.9 0.00 0.00 0.00 55 1015.0
20260504182044 28 107 1.6 12.9 0.00 0.00 0.00 56 1015.2
20260504181544 28 146 1.6 6.4 0.00 0.00 0.00 58 1015.2
20260504181042 28 146 1.6 11.3 0.00 0.00 0.00 56 1015.3
20260504180544 28 211 3.2 14.5 0.00 0.00 0.00 54 1015.4
20260504180044 28 142 1.6 14.5 0.00 0.00 0.00 56 1015.4
20260504175541 28 146 3.2 14.5 0.00 0.00 0.00 56 1015.3
20260504175043 28 106 1.6 14.5 0.00 0.00 0.00 55 1015.4
20260504174541 28 67 4.8 14.5 0.00 0.00 0.00 55 1015.6
20260504174040 28 86 1.6 8.0 0.00 0.00 0.00 56 1015.7
20260504173541 28 207 1.6 11.3 0.00 0.00 0.00 57 1015.6
20260504173048 28 148 4.8 19.3 0.00 0.00 0.00 57 1015.7
20260504172539 28 130 4.8 12.9 0.00 0.00 0.00 56 1015.8
20260504172038 28 59 1.6 12.9 0.00 0.00 0.00 56 1015.8
20260504171538 28 232 1.6 12.9 0.00 0.00 0.00 56 1015.9
20260504171038 28 143 1.6 14.5 0.00 0.00 0.00 55 1016.0
20260504170537 28 57 3.2 14.5 0.00 0.00 0.00 56 1016.1
20260504151015 25 85 4.8 12.9 0.00 0.00 0.00 63 1016.7
20260504150511 25 215 1.6 11.3 0.00 0.00 0.00 66 1016.7
20260504141055 23 71 4.8 12.9 0.00 0.00 0.00 73 1016.4
20260504140555 23 70 1.6 11.3 0.00 0.00 0.00 75 1016.4
20260504140106 23 24 1.6 11.3 0.00 0.00 0.00 75 1016.4
20260504130536 20 149 3.2 19.3 0.00 0.00 0.00 82 1016.0
20260504110513 18 302 0.0 1.6 0.00 0.00 0.00 87 1015.7
20260504100510 18 305 0.0 0.0 0.00 0.00 0.00 87 1015.0
20260504082005 18 133 0.0 1.6 0.00 0.00 0.00 87 1015.0
20260504081506 18 133 0.0 1.6 0.00 0.00 0.00 87 1015.0
20260504081005 18 133 0.0 3.2 0.00 0.00 0.00 87 1014.9
20260504080505 18 132 0.0 3.2 0.00 0.00 0.00 88 1014.9